METEOR 2-8 DEB

Satellite information

Favourite Embed

Satellite Type and Status

DEBRISIN ORBIT

Key statistics

Satellite METEOR 2-8 DEB at a glance.

Uptime

15872

Days in orbit

Revolutions

≈ 14.2

Per day

Orbit

LEO

Low Earth Orbit

Inclination

82.5

Latest

Satellite identification and parameters

Extended collection of information and parameters for METEOR 2-8 DEB.

Object identification

Identified? True

Debris? True

Object name: METEOR 2-8 DEB

International designator: 1982-025W

Object number (NORAD): 36336

Object ID (CCSDS): 36336

Country: COMMONWEALTH OF INDEPENDENT STATES (CIS)

Current information (Y/N): Y

RCS size: SMALL

Orbital parameters

Period: 101.561 minutes

Inclination: 82.5363 deg

SMA: 7210.723 km

Apoapsis: 837.06 km

Periapsis: 828.116 km

RAAN: 131.8001 deg

Eccentricy: 0.00062019

Argument of periapsis: 295.0479 deg

Mean anomaly: 65.0056 deg

Mean motion: 14.17863878 rev/day

Mean motion (dot): 0.00004919 rev/day2

B* drag term: 0.0024011233 1/REarth

Two-line elements (TLE)

Creation date: Sept. 7, 2025, 3:09 a.m.

Reference frame: TEME

Reference center: EARTH

Epoch: Sept. 6, 2025, 10:55 p.m. UTC

TLE line 0: 0 METEOR 2-8 DEB

TLE line 1: 1 36336U 82025W 25249.95528521 .00004919 00000-0 24011-2 0 9990

TLE line 2: 2 36336 82.5363 131.8001 0006202 295.0479 65.0056 14.17863878225790

Live tracking on map

Real-time ground track for satellite METEOR 2-8 DEB.

In-orbit conjunctions

A list of the most updated potential collisions computed for object METEOR 2-8 DEB.

Target Orbit TCA Probability of collision Miss distance Type
SL-16 R/B LEO 2025-08-22 02:54:34 0.00021268 84.0 (m) ROCKET BODY
FENGYUN 1C DEB SSO 2024-11-11 14:24:25 0.0009355058 166.0 (m) DEBRIS

Associated space launch

Second generation soviet meteorological satellite

METEOR 2-8 DEB was lifted into orbit during the mission ‘Tsiklon-3 | Meteor-2 8’, on board a Tsiklon-3 space rocket.

The launch took place on March 25, 1982, 9:50 a.m. from 32/1.

For more information about the launch, click the button.

Launch to space Tsiklon-3 | Meteor-2 8
Tsiklon-3 | Meteor-2 8

Agency: N/A

Status: Launch Successful

Launch date: March 25, 1982, 9:50 a.m. UTC

Rocket: Tsiklon-3

Launch pad: 32/1

Location: Plesetsk Cosmodrome, Russian Federation

...

Latest news about this satellite

There are no fresh news available about this satellite. Check back as we update our databases every day.


Newsletter sign-up

Weekly statistics, charts and insights to help you stay on top of the space industry.